Location: Wildlife_Club
(35.6000°N, 81.4330°W)
Time: 05:12:53
(UTC-04:00)

A-11 Canister half - Pass Details

Date: 21 August 2020
Orbit: 1514 x 1686 km, 47.2° (Epoch: 23 September)

Event Time Altitude Azimuth Distance (km) Brightness Sun altitude
Rises 22:48:57 0° 303° (WNW) 4,819 12.8 -29.6°
Reaches altitude 10° 22:52:03 10° 300° (WNW) 3,854 11.9 -30.0°
Maximum altitude 23:01:45 63° 222° (SW) 1,814 9.2 -31.4°
Enters shadow 23:03:41 55° 179° (S) 1,944 9.1 -31.7°
